Wind_Speed
16 11 10 12 15 19 22 22 21 17 10 13 17 14 16 13 11 15 12 14 21 17 17 21 19 19 19 15 17 21 22 20 21 22 20 19 18 18 19 19 20 20 19 18 18 19 17 17 17 17 16 17 17 17 17 18 18 18 19 20 19 21 20 19 20 21 22 23 22 21 20 18 15 12 11 10 9 9 8 8 7 7 6 5 5 5
16 12 13 18 19 20 21 20 21 17 8 10 13 11 14 13 10 14 13 14 19 15 14 20 20 19 20 17 16 20 19 19 21 22 21 20 19 18 19 20 20 19 19 18 18 18 16 16 17 17 17 18 18 18 17 19 20 20 22 23 21 20 20 19 20 21 23 22 21 20 19 17 14 12 11 10 11 11 9 8 8 7 7 6 6 4
13 14 19 21 18 17 18 19 23 21 13 9 10 9 10 11 10 12 14 15 15 11 11 18 18 17 19 18 17 20 19 20 24 24 22 21 20 19 19 20 20 19 20 21 19 17 16 17 17 17 17 18 17 17 18 19 20 20 22 23 21 21 21 20 19 20 21 20 18 17 16 15 13 12 12 11 10 9 8 9 9 8 8 7 4 2
11 15 21 20 16 17 17 19 23 20 14 9 9 10 9 12 12 9 13 16 14 11 11 14 14 12 15 17 16 20 22 20 22 23 20 20 19 19 20 20 20 20 21 21 20 18 17 17 18 18 17 18 17 17 18 18 19 20 21 22 20 22 22 20 19 18 18 18 17 16 13 13 12 11 11 10 9 8 7 8 8 7 7 4 2 2
16 13 15 19 19 17 16 17 19 16 12 12 12 10 9 13 15 10 11 15 13 12 11 10 10 9 13 17 15 17 20 19 19 20 19 19 18 17 18 17 17 19 20 20 20 19 18 17 18 17 16 17 17 16 16 16 17 18 19 18 17 20 22 21 20 18 18 20 19 16 13 14 13 11 10 10 10 9 9 8 7 7 5 3 2 2
19 13 9 18 21 18 17 16 18 16 11 13 14 13 12 11 17 15 13 14 10 10 13 11 9 9 13 17 15 14 16 18 18 19 19 20 19 18 18 17 17 18 19 19 20 20 19 17 16 16 16 16 16 15 13 14 15 15 16 17 17 19 23 23 22 22 23 22 19 17 15 15 14 12 11 11 11 11 11 10 7 6 5 3 2 2
15 16 10 14 20 20 19 15 18 19 12 10 13 14 13 9 14 17 15 14 9 9 14 16 12 8 11 16 17 16 16 18 18 17 19 20 20 19 19 18 19 20 20 20 21 21 20 17 15 15 15 16 17 14 13 18 19 15 15 18 17 21 24 25 23 24 25 22 19 17 14 13 13 11 10 10 11 12 12 9 7 6 5 3 2 4
14 20 14 14 18 18 16 13 16 19 13 9 12 16 15 12 13 15 14 12 9 8 12 17 15 9 8 14 18 19 18 19 20 18 18 20 21 20 19 19 21 22 22 21 22 22 20 17 16 15 15 16 17 13 13 21 24 19 17 18 20 23 25 25 22 22 23 22 18 16 14 13 13 11 9 8 10 12 11 9 8 7 5 2 2 5
15 20 18 16 17 14 14 14 16 19 15 10 11 14 15 15 14 14 12 10 10 9 10 15 17 11 8 11 16 20 20 20 23 21 19 20 22 22 22 22 23 23 22 21 22 21 19 17 15 15 17 19 15 12 14 20 23 21 19 19 22 25 25 24 21 20 21 19 15 14 16 15 14 14 12 10 11 12 11 9 9 7 4 2 4 5
13 17 19 17 14 13 14 15 16 18 15 11 12 12 12 12 12 12 11 10 10 10 10 15 18 12 8 9 14 17 19 20 19 19 17 19 23 24 24 24 23 22 22 22 22 20 18 17 15 15 18 19 15 13 15 18 20 20 19 20 23 25 24 22 20 19 19 17 14 15 15 15 16 17 15 12 12 12 11 9 9 6 3 3 4 4
11 14 18 16 13 13 14 16 16 17 17 13 12 12 10 10 9 8 9 9 9 10 13 18 20 15 10 9 13 13 15 17 16 16 17 20 24 25 24 24 23 23 22 23 23 20 16 15 15 16 18 19 16 14 17 18 18 19 20 22 23 24 23 21 20 19 18 16 14 14 14 15 17 16 13 12 11 11 10 9 7 4 2 4 4 2
12 11 13 15 17 15 12 15 16 17 18 13 11 11 10 9 8 7 7 8 9 11 14 18 20 18 13 9 12 14 15 18 17 18 19 20 23 25 24 24 24 24 23 23 24 23 19 17 16 17 18 18 17 16 19 19 19 20 21 23 23 23 23 21 20 19 17 16 15 15 16 18 18 15 12 10 9 9 8 6 5 3 3 3 2 2
11 10 13 17 19 17 12 12 13 15 16 13 12 12 11 10 8 9 9 8 10 9 10 17 19 15 13 10 10 14 18 20 18 18 21 22 24 25 25 25 25 25 24 24 24 25 23 21 19 19 21 20 18 19 21 20 20 22 22 22 22 23 23 22 20 18 16 16 16 18 21 20 18 15 12 10 9 8 6 4 4 3 3 2 1 5
10 10 15 18 16 17 15 11 12 13 14 14 14 13 12 11 9 10 10 9 11 7 5 14 16 11 11 12 12 13 16 20 22 21 24 25 26 27 26 26 24 24 24 24 23 24 24 22 20 20 22 21 20 21 22 21 23 23 21 22 23 21 21 21 20 17 16 15 16 21 24 21 18 16 13 11 10 9 7 6 5 4 3 1 4 8
11 10 14 16 13 16 18 14 13 14 14 14 14 14 13 10 9 10 9 10 12 9 7 12 12 9 8 6 10 14 15 19 23 23 24 26 27 27 25 24 23 23 23 23 23 25 25 23 21 21 22 24 23 23 23 22 22 23 23 23 23 21 20 20 19 18 16 16 18 22 24 21 18 17 14 12 11 10 9 7 5 4 3 3 7 10
13 10 13 18 16 18 18 15 15 16 13 12 13 13 13 11 9 6 2 2 6 8 8 9 8 6 3 2 4 13 15 17 20 22 23 24 24 24 23 24 24 24 24 24 24 25 26 25 23 22 23 25 25 25 26 23 20 23 25 23 21 20 20 21 20 18 17 18 21 23 23 20 19 17 15 13 11 11 10 6 5 4 4 6 9 12
12 8 15 20 17 18 18 15 17 16 11 10 12 13 14 13 10 6 1 3 2 7 8 8 8 5 3 3 6 13 15 16 17 18 20 21 22 22 21 23 24 24 25 25 24 26 27 27 24 24 24 25 25 27 29 27 22 23 25 23 21 20 20 21 19 17 19 21 23 24 23 21 20 17 15 14 12 11 10 6 5 6 6 7 10 12
8 6 14 20 16 18 20 16 16 17 12 10 11 13 12 10 9 7 6 4 5 8 7 10 13 9 6 5 9 14 16 17 17 16 17 19 20 20 21 23 24 25 25 25 25 24 26 27 26 26 26 24 25 29 30 28 25 24 24 23 22 22 21 20 18 18 21 23 24 25 24 22 20 18 17 15 13 11 9 6 6 7 7 8 10 12
5 5 12 18 15 16 18 14 12 16 16 10 10 12 11 8 8 9 7 7 9 8 6 10 13 11 8 6 10 16 17 18 18 17 17 18 19 20 21 23 24 25 24 24 25 25 25 27 26 26 26 24 26 29 30 28 26 26 25 22 21 22 22 20 19 19 22 23 24 25 25 22 20 19 17 15 14 12 9 7 7 8 7 8 11 13
5 3 9 15 16 14 13 11 10 13 13 8 9 13 11 8 9 9 6 5 8 8 6 9 10 9 8 7 11 16 18 18 19 17 16 16 19 21 21 22 24 24 24 25 26 26 26 27 26 25 25 25 26 29 30 29 27 27 26 24 21 21 21 21 20 21 23 24 25 25 24 22 21 19 17 15 14 14 9 8 9 9 8 9 12 14
4 3 6 12 15 13 10 9 11 13 12 8 8 13 12 9 8 8 7 6 6 7 6 7 7 7 7 6 8 13 15 17 17 16 14 16 20 22 22 22 23 24 25 26 26 26 26 27 25 24 24 25 27 28 29 28 27 27 28 26 23 21 21 22 20 22 26 27 26 25 24 23 22 21 18 15 15 14 10 9 11 10 9 11 14 15
2 3 7 11 11 11 11 12 13 14 15 11 9 10 11 10 9 9 9 8 6 6 5 6 6 4 6 7 8 11 13 14 17 17 14 16 22 24 23 22 22 23 24 25 25 25 26 26 25 24 25 25 27 29 28 26 25 27 28 26 24 22 22 23 22 21 26 28 27 25 23 22 22 21 18 16 17 14 10 10 12 11 10 11 15 16
1 1 7 10 9 11 13 14 13 13 15 14 10 10 11 11 10 9 8 8 6 4 3 4 5 3 6 6 9 10 9 10 15 18 17 18 23 23 21 20 19 20 21 22 23 24 25 26 24 25 26 26 28 29 27 26 28 30 27 24 23 22 22 25 23 20 23 29 28 24 23 23 23 21 18 18 18 15 11 12 13 11 10 12 16 17
2 2 7 9 8 9 9 10 10 10 12 13 10 11 12 12 12 9 7 7 6 6 4 3 5 4 4 2 4 5 4 3 6 11 14 14 15 16 17 17 18 19 20 21 22 23 25 26 26 25 26 28 30 30 28 29 32 31 27 24 21 21 22 25 23 21 24 29 28 24 24 25 24 20 19 20 19 14 12 13 13 11 10 13 17 17
3 3 6 8 9 8 6 7 9 10 10 9 9 11 12 13 14 10 8 7 6 9 9 4 3 5 5 4 3 4 3 3 3 7 10 10 11 13 15 17 19 20 21 21 22 24 26 29 29 27 26 29 31 32 32 32 33 32 31 27 21 20 24 24 24 25 27 29 28 25 25 26 23 20 20 22 19 15 13 14 14 12 12 15 18 18
2 3 4 6 8 9 8 8 9 10 10 7 10 13 12 13 15 11 8 7 7 9 10 6 3 6 9 7 7 7 5 5 5 8 11 11 12 15 16 18 20 21 21 22 23 26 29 31 31 28 28 29 29 31 34 34 34 35 32 26 22 23 26 25 26 28 28 26 27 27 27 26 23 22 23 22 19 16 14 15 14 13 13 17 19 18
2 3 3 2 2 4 5 5 5 8 11 10 12 14 13 14 15 12 9 7 7 8 8 8 7 4 8 9 8 8 5 3 3 6 9 11 13 16 17 19 20 20 21 22 24 27 29 30 30 29 28 28 28 29 33 35 36 35 31 26 25 26 27 27 27 29 27 25 27 29 27 25 24 24 24 21 18 16 16 16 15 13 15 19 20 19
3 3 2 4 4 1 1 3 3 5 11 13 14 14 14 15 16 14 12 9 9 8 7 10 12 10 7 7 5 6 4 2 2 5 7 10 12 15 17 18 19 20 21 23 26 28 29 29 31 31 29 28 27 27 30 33 34 32 29 28 27 27 27 27 28 29 27 25 27 28 26 25 25 25 24 21 18 17 17 17 16 15 17 21 21 19
4 3 1 5 6 4 3 2 2 4 8 11 14 15 15 16 17 15 14 12 11 9 7 11 15 16 12 8 2 5 3 2 3 4 6 9 12 14 16 18 20 21 23 26 28 28 28 30 33 33 30 28 27 26 28 31 31 29 30 30 29 28 27 28 29 29 27 25 26 26 26 26 26 26 23 21 19 19 19 18 18 17 20 22 22 20
5 2 2 5 7 5 5 4 5 6 7 9 14 16 16 17 18 16 15 14 12 10 9 9 12 17 15 8 1 4 4 3 5 6 8 10 13 15 17 18 20 22 24 27 28 28 27 30 35 35 31 29 27 27 29 32 31 29 29 30 29 28 28 30 33 31 27 25 25 25 27 28 27 26 23 21 20 21 21 20 19 19 22 23 22 21
4 1 2 4 5 4 4 4 6 8 10 10 12 15 16 17 18 17 15 14 12 11 11 8 8 14 11 2 3 5 5 5 6 8 10 12 14 16 17 19 21 24 25 27 29 28 26 28 34 36 33 28 27 26 28 30 30 27 27 28 29 30 30 32 35 32 27 25 25 27 29 29 27 25 22 21 22 22 22 21 20 21 23 24 23 22
4 2 2 4 4 2 2 4 7 7 9 11 13 15 17 17 16 15 14 14 13 12 13 10 9 13 9 3 5 4 5 4 6 8 10 12 15 17 19 20 22 24 26 27 30 31 29 28 30 35 35 31 28 27 26 27 27 25 25 26 28 30 31 33 35 32 27 25 26 28 29 28 26 24 22 22 23 24 23 22 21 22 25 25 23 23
4 4 3 3 3 2 2 5 3 7 9 11 13 16 17 15 15 15 14 16 15 13 11 10 10 14 12 6 3 2 1 1 3 7 10 12 15 17 19 20 22 23 25 28 31 33 32 31 29 32 35 34 30 27 25 25 26 24 23 26 29 30 31 35 35 30 28 27 27 28 28 26 25 24 23 25 26 26 25 23 22 24 26 25 23 23
3 4 4 3 3 4 5 6 1 9 9 5 5 12 18 17 16 16 15 15 15 13 11 10 13 16 15 10 7 5 3 2 1 5 9 11 15 17 19 20 21 23 25 28 31 32 32 32 30 29 30 32 31 27 24 24 24 22 22 26 29 28 31 36 35 30 29 29 28 28 27 26 27 27 27 30 29 26 22 21 22 24 25 24 23 23
2 4 4 4 4 5 6 4 4 8 5 1 2 6 14 17 18 17 16 16 17 17 17 16 17 19 16 11 6 4 3 1 2 6 9 12 16 18 19 21 22 23 26 28 30 32 31 31 32 29 27 29 30 26 24 23 21 20 24 29 30 27 29 34 33 30 30 30 29 30 29 28 29 29 30 30 25 19 17 19 22 24 24 25 23 23
2 4 5 4 4 5 5 4 5 2 1 4 3 2 6 12 17 16 15 17 19 19 19 19 19 19 16 11 5 3 2 1 3 7 11 14 16 18 19 20 22 23 24 26 28 30 29 30 31 30 26 26 28 27 26 24 22 24 28 30 29 28 28 31 32 32 31 31 31 32 30 28 28 27 28 24 17 15 18 22 25 26 25 25 23 22
2 4 4 4 3 4 4 5 4 3 2 5 4 3 5 6 11 13 11 12 16 17 17 18 19 18 15 10 4 2 1 2 5 7 12 15 16 16 16 17 19 21 21 23 25 25 26 27 27 28 26 25 26 27 26 24 25 29 30 28 30 32 30 31 34 34 32 31 31 31 29 28 26 26 25 19 14 16 19 21 24 27 26 24 23 23
4 5 4 4 4 4 5 5 5 5 4 3 4 3 3 2 4 11 10 8 12 16 18 18 17 17 14 9 4 2 1 5 7 5 11 16 15 15 15 15 17 19 20 21 23 24 25 25 25 27 27 25 25 24 23 22 25 29 28 25 29 33 32 32 32 33 32 31 31 30 29 28 26 25 23 19 16 19 20 20 24 28 26 23 22 22
3 5 5 5 6 5 6 6 5 3 1 4 5 3 1 3 2 8 9 8 11 15 18 18 16 15 11 8 6 5 4 7 5 0 8 16 16 16 16 16 17 19 19 20 22 24 25 26 26 27 26 25 24 23 23 23 25 27 26 24 27 31 32 32 31 31 32 33 33 31 28 27 27 25 22 19 18 19 21 21 24 27 25 22 22 21
4 4 5 6 6 5 6 6 4 2 5 6 6 5 3 1 3 8 8 7 8 12 15 15 13 11 8 8 9 8 7 5 1 2 6 15 17 17 17 17 18 19 20 20 22 23 24 25 26 26 26 25 23 23 24 26 27 27 27 26 29 31 31 30 29 28 28 30 33 32 28 27 28 26 24 21 19 19 20 20 24 28 27 23 22 22
5 4 5 6 6 5 5 5 2 3 5 6 8 7 3 1 6 9 6 1 2 6 9 9 9 8 8 11 11 7 4 1 4 2 8 15 19 19 17 16 17 18 19 20 21 22 23 23 24 25 26 24 24 26 27 28 28 28 29 30 31 30 28 28 28 26 25 25 29 30 29 28 28 27 24 21 19 19 20 21 26 31 30 27 25 25
5 4 4 5 5 4 3 4 2 3 3 7 9 5 1 4 5 4 0 3 3 1 3 4 6 7 8 11 9 4 4 3 6 2 11 18 20 20 19 18 18 19 19 19 21 22 22 21 22 24 24 24 27 29 28 27 28 29 30 33 31 27 27 29 29 26 23 23 25 28 29 29 29 27 24 21 21 21 21 23 27 31 32 30 28 27
4 4 3 3 3 3 3 3 3 2 3 9 8 1 1 2 2 4 6 4 3 3 2 2 5 7 10 11 8 6 5 3 4 4 13 18 18 19 19 19 20 20 20 20 21 22 21 20 22 23 23 22 25 28 26 26 28 29 30 30 27 25 28 30 30 27 23 23 25 27 29 30 29 27 25 25 24 23 23 26 30 31 30 29 28 28
2 3 3 0 1 3 2 0 1 2 5 9 7 1 2 5 6 8 8 4 5 4 2 3 5 8 10 10 9 7 4 3 4 6 12 15 16 17 17 18 20 21 21 21 21 22 20 19 21 22 21 20 21 24 25 26 26 28 28 26 25 26 28 28 27 27 24 23 23 24 26 28 28 27 27 27 26 24 25 27 30 31 29 28 28 29
1 2 4 2 1 3 3 2 3 3 5 7 5 3 6 7 6 6 7 6 7 6 5 4 7 8 8 8 8 5 3 2 3 5 8 11 13 14 15 17 19 20 20 20 21 22 20 19 20 20 20 20 20 20 22 23 24 24 24 25 26 27 26 25 26 27 24 22 22 22 23 25 27 27 27 27 25 24 25 27 29 31 30 29 29 29
2 3 3 3 2 3 3 1 1 3 7 8 5 3 5 6 6 6 7 8 9 9 8 7 7 8 7 7 6 4 4 5 5 4 6 8 10 12 14 16 18 20 20 20 21 22 20 19 20 21 21 21 20 19 21 23 22 22 23 26 27 26 25 25 26 25 23 22 22 21 21 24 27 28 28 26 24 24 25 26 27 30 31 30 29 29
3 2 3 3 3 3 2 3 5 3 3 7 3 5 7 8 8 8 8 9 10 9 10 11 9 7 6 5 4 3 4 6 6 6 8 8 9 12 14 17 19 20 20 20 21 22 21 20 21 21 21 21 20 19 22 23 21 22 24 25 24 24 24 25 25 24 23 22 22 21 21 23 27 28 28 26 25 26 27 27 27 29 31 31 30 30
2 3 4 3 4 4 0 4 6 8 6 7 2 5 8 8 9 8 8 10 11 12 13 12 10 7 6 5 5 6 7 6 6 8 8 8 10 12 14 16 18 19 20 20 20 21 21 21 22 21 20 20 19 18 21 23 23 24 25 23 22 23 23 22 22 22 21 20 21 22 22 23 25 27 28 29 28 28 28 28 28 30 32 32 32 32
3 4 4 2 4 4 2 3 6 7 6 4 2 6 8 8 9 7 7 8 10 11 13 13 12 10 9 8 8 9 9 7 7 8 8 8 10 11 12 15 16 17 19 20 19 20 21 22 23 22 20 19 18 17 19 22 25 26 24 22 21 21 20 19 19 19 19 19 21 23 23 24 24 26 28 29 29 29 28 28 28 29 31 33 32 30
4 4 3 2 3 3 1 1 4 4 3 3 2 3 5 7 9 8 7 8 8 9 10 12 13 13 13 11 10 9 11 10 9 9 8 8 9 10 11 13 14 15 18 18 17 19 20 20 21 21 19 17 16 16 19 23 25 24 22 21 19 18 17 17 17 17 18 18 20 22 24 25 25 27 28 29 29 29 29 28 27 28 31 33 30 26
5 5 3 4 4 2 3 2 3 4 2 5 6 2 2 4 7 8 8 8 9 9 9 9 11 12 13 14 13 11 12 12 11 11 10 10 10 10 11 12 12 13 16 15 15 18 20 19 19 19 18 16 15 16 20 23 23 21 20 20 18 17 17 16 16 17 17 17 18 20 22 24 26 27 29 30 31 31 30 30 30 30 32 32 28 25
Wind_Direction
202 211 211 214 213 210 209 212 217 221 245 247 224 213 213 211 204 201 188 176 185 192 204 210 213 214 208 198 188 179 184 198 203 205 206 202 199 198 199 198 199 205 205 203 207 207 200 196 196 195 194 195 197 196 193 197 195 189 189 190 193 193 189 193 193 187 188 191 189 188 191 192 194 196 194 190 188 187 183 178 175 180 191 183 167 159
204 221 220 217 219 217 213 214 221 224 243 246 225 209 206 205 195 194 188 173 183 199 208 210 215 214 209 203 192 182 185 198 202 202 203 201 199 198 201 201 202 203 203 204 208 208 202 196 197 195 198 201 199 196 194 195 194 193 194 193 195 198 193 198 200 191 191 194 192 192 193 194 195 194 194 197 196 192 189 183 177 181 184 176 171 166
207 224 225 220 220 222 218 213 217 220 223 230 220 207 203 202 195 190 191 182 185 204 211 207 213 215 208 205 197 188 190 200 202 203 203 201 198 196 200 202 202 201 200 205 208 206 202 200 199 196 199 201 198 199 197 190 189 194 197 194 199 207 202 201 202 195 193 194 195 196 195 196 198 197 198 201 198 192 192 191 184 180 181 178 174 181
210 222 224 221 216 219 219 211 212 216 220 228 222 214 211 203 199 193 194 193 190 205 221 211 210 216 208 204 203 196 196 201 203 205 206 205 202 199 201 203 202 200 199 204 206 205 205 205 205 202 201 202 204 204 193 184 186 191 194 190 195 209 208 205 205 196 190 192 197 197 193 196 198 201 201 194 188 185 185 192 188 183 183 176 183 241
219 222 221 217 211 210 213 207 207 212 215 225 228 227 221 201 203 204 186 186 190 204 222 213 203 216 207 201 203 198 198 203 202 204 207 207 206 205 206 206 205 203 202 203 205 210 210 208 208 204 204 212 213 201 185 181 185 188 191 181 183 205 209 205 202 193 187 194 199 195 193 200 196 192 191 185 188 186 182 191 191 184 182 181 205 255
222 219 210 213 207 203 212 209 205 210 213 221 222 228 240 212 201 204 178 171 186 202 205 203 208 214 202 201 201 191 196 203 199 202 205 205 206 208 208 208 208 208 208 207 209 214 213 210 209 201 207 222 214 197 192 196 195 192 188 172 175 202 205 198 195 192 192 196 199 199 203 208 197 189 190 187 191 189 186 192 190 182 187 204 233 298
225 216 202 210 206 202 214 214 205 207 210 217 207 211 238 228 198 198 182 176 198 205 195 201 220 218 193 201 201 189 193 199 200 204 204 203 205 207 209 207 206 209 210 210 211 214 213 211 204 192 199 215 209 196 198 205 204 198 189 183 191 203 198 193 194 195 197 199 199 200 208 208 196 193 199 194 193 191 189 189 184 187 198 217 275 313
224 219 207 208 210 203 210 212 200 200 207 215 197 194 212 220 209 199 187 192 211 208 193 198 216 232 207 199 194 189 193 198 202 206 204 203 204 205 208 206 205 207 207 207 210 213 211 206 206 197 188 195 201 200 196 200 201 198 196 195 198 199 196 196 197 196 200 204 202 199 203 202 192 191 197 197 198 192 185 184 191 201 209 228 289 304
211 219 209 206 214 207 204 207 194 193 206 209 186 185 196 207 215 204 195 206 211 209 200 194 205 229 228 196 184 186 193 199 202 202 201 201 202 205 208 207 206 206 206 206 210 213 208 202 207 200 184 189 206 214 201 198 200 200 200 196 195 198 198 198 196 194 199 202 199 196 197 199 196 193 195 194 197 193 182 186 201 205 208 241 290 305
202 219 216 209 215 210 201 204 194 190 203 199 176 176 182 192 206 205 205 212 208 213 214 198 198 215 228 196 181 187 196 201 200 197 197 198 200 204 208 208 207 205 205 207 211 215 211 205 204 193 190 204 222 221 206 204 204 201 196 192 193 195 195 197 195 193 198 197 193 197 200 205 202 197 196 192 192 193 182 186 203 201 204 266 297 304
198 214 220 215 216 215 203 201 194 190 198 195 178 175 173 179 192 198 211 215 211 218 221 207 198 205 225 204 187 196 200 195 192 191 194 197 199 204 207 207 205 203 203 206 209 210 205 202 201 196 199 211 220 216 207 206 201 191 187 187 189 190 190 194 193 192 199 195 189 197 203 205 200 192 193 191 191 192 184 187 195 192 226 285 303 268
208 210 212 211 213 214 206 198 189 189 197 194 185 180 169 171 179 186 202 211 216 220 219 211 199 202 222 213 192 198 196 191 191 192 192 194 198 202 205 207 205 204 202 204 206 206 201 197 194 192 196 207 217 211 201 199 191 181 181 184 187 189 189 190 190 192 196 191 187 191 188 189 192 190 190 191 191 191 184 182 178 190 251 280 293 193
211 215 198 200 206 207 204 192 182 188 194 192 192 187 177 175 175 184 189 197 216 221 215 206 198 203 222 224 206 193 188 189 191 194 193 193 198 201 202 204 204 204 202 203 206 208 205 200 194 194 200 210 216 204 193 191 186 176 176 183 186 188 188 187 189 193 193 187 185 180 175 180 190 194 195 191 187 182 175 179 182 225 267 282 229 184
200 215 198 193 197 202 206 195 181 184 186 190 194 189 186 182 173 184 187 195 210 210 204 199 195 208 223 224 219 197 184 188 189 195 198 195 198 201 202 201 199 200 200 201 203 204 200 195 191 192 197 203 205 200 192 186 185 180 177 184 188 188 188 185 187 192 189 181 178 174 174 181 187 191 196 190 179 178 180 188 203 232 261 252 201 183
190 200 193 191 187 191 205 206 187 180 181 192 197 193 197 190 176 186 188 197 203 185 178 191 193 213 216 213 212 193 183 189 189 194 201 200 201 201 200 198 197 196 197 198 199 199 197 194 192 190 191 195 198 200 192 181 184 187 184 187 188 184 185 185 187 191 187 181 178 175 176 180 182 184 189 184 175 181 187 191 206 223 225 209 196 181
194 190 180 190 189 184 198 208 192 184 183 190 197 199 204 197 183 182 183 219 206 181 176 188 198 211 182 84 180 184 183 187 189 195 199 200 202 200 198 196 194 194 194 195 195 198 200 196 192 190 188 190 195 198 191 180 182 187 185 185 183 180 184 190 194 191 185 182 179 178 177 178 182 182 180 180 180 187 192 193 199 205 204 202 188 176
193 177 166 183 189 184 195 205 194 191 185 181 198 203 201 205 201 187 115 50 178 192 183 189 203 201 157 130 171 183 187 185 186 193 196 196 195 194 194 193 191 192 194 194 193 196 200 196 192 190 188 187 189 190 187 187 192 189 184 182 179 180 187 195 198 189 182 183 180 179 179 178 181 180 176 181 188 194 197 192 193 199 197 192 181 173
190 160 161 180 185 182 194 202 196 201 199 182 193 195 191 210 219 205 190 152 181 202 186 189 206 206 196 186 172 181 188 184 184 188 189 189 187 185 188 189 190 193 193 193 191 191 195 197 194 191 189 191 192 189 187 192 199 195 187 183 182 185 190 196 199 188 183 186 184 183 182 179 178 180 181 185 191 198 200 193 197 201 192 182 176 174
196 156 160 179 182 177 189 195 192 206 213 206 199 190 185 199 200 197 201 186 191 205 193 195 208 212 210 184 168 182 186 181 183 189 189 188 185 186 190 190 191 193 191 192 191 189 191 196 194 190 191 193 195 196 195 198 203 201 192 185 185 191 195 199 200 190 186 189 188 184 183 180 179 183 186 186 190 197 198 196 203 200 188 180 177 176
202 173 154 177 182 174 181 192 188 195 208 226 220 198 194 204 198 197 210 200 196 204 205 200 202 210 214 186 170 182 187 184 184 188 191 188 188 191 193 192 194 193 191 192 191 187 189 193 192 190 191 191 193 196 197 201 206 203 193 185 186 194 198 201 199 191 189 191 189 185 182 180 182 186 188 187 194 200 196 197 204 197 185 181 179 178
204 186 150 168 177 173 179 195 192 185 187 205 211 194 192 203 205 205 212 215 212 208 203 199 201 205 200 191 181 179 183 187 188 189 190 189 192 194 195 194 192 191 190 190 189 185 186 190 189 188 189 189 192 191 191 199 205 200 191 187 190 193 195 198 196 191 192 191 188 187 183 182 186 189 189 192 199 203 199 200 204 196 183 180 181 181
193 184 157 160 173 181 184 191 196 191 188 194 199 190 191 195 197 202 202 207 225 229 209 204 217 197 159 174 192 183 182 189 191 193 192 192 195 197 197 194 187 186 185 184 184 181 183 187 186 185 185 187 189 188 189 199 201 191 186 189 195 194 192 196 194 189 192 190 187 187 183 184 190 191 192 196 199 201 203 206 205 195 183 181 182 180
251 235 161 157 173 182 179 188 202 198 190 197 207 202 199 199 202 205 196 190 206 227 215 208 215 166 123 166 193 182 179 188 194 199 200 198 199 198 195 191 183 181 180 178 178 177 180 184 183 184 186 185 188 188 191 195 191 185 185 190 194 192 192 196 194 190 192 191 188 185 182 187 194 194 197 201 200 202 207 207 202 193 185 184 182 179
228 217 162 153 166 170 162 180 208 213 199 200 208 210 208 204 206 217 216 198 199 204 196 198 201 161 100 119 192 160 139 152 191 204 203 197 193 190 186 181 177 175 174 174 175 176 181 184 183 184 184 183 187 191 193 192 189 191 195 193 190 190 194 196 193 188 189 191 191 187 187 193 195 195 202 204 201 205 208 202 198 194 190 186 183 180
195 202 166 153 158 161 157 175 198 213 211 206 207 210 213 209 205 217 228 216 211 211 204 207 204 158 111 100 140 150 170 197 220 213 202 187 173 171 171 170 170 171 171 175 177 178 183 185 183 182 182 182 187 191 192 191 194 198 196 191 191 197 198 196 191 188 188 191 193 192 196 198 195 198 205 204 204 209 206 200 198 197 195 188 184 183
197 215 180 162 162 165 174 181 186 198 204 211 209 204 209 214 208 208 217 213 210 210 207 217 205 134 123 132 141 147 170 194 215 211 202 195 181 171 169 167 169 172 174 179 182 181 184 186 183 182 183 184 186 190 191 190 193 195 191 192 204 207 201 196 190 188 190 192 193 196 198 197 197 203 205 205 210 210 203 201 201 201 197 189 183 183
260 236 227 250 211 160 150 151 163 193 198 201 207 203 203 212 213 212 216 214 212 210 205 219 231 176 153 167 155 145 155 165 195 200 191 189 182 174 172 170 171 174 175 180 185 184 185 186 184 183 185 187 188 191 191 190 190 190 191 201 212 207 199 196 190 189 193 194 193 197 200 200 202 205 205 209 213 206 200 203 203 202 199 189 183 183
271 229 246 311 285 250 104 116 134 203 204 199 202 204 201 205 211 216 220 219 217 222 209 211 237 252 228 207 163 131 131 106 141 187 185 181 176 172 172 171 170 173 175 181 185 185 184 185 185 185 185 188 190 191 191 192 193 194 198 205 206 198 196 197 191 191 196 197 198 202 204 203 203 204 208 212 209 202 203 205 204 203 197 189 184 184
270 251 281 316 293 282 285 227 188 211 213 207 205 204 202 204 210 214 220 221 219 230 219 204 228 247 248 241 179 109 92 58 108 158 177 178 177 173 170 170 172 176 180 184 186 185 185 185 185 187 187 189 191 188 189 193 194 196 202 204 199 193 196 197 192 192 198 202 206 208 205 202 203 206 211 209 203 203 207 206 205 203 195 188 185 184
250 280 357 307 288 283 268 242 224 216 215 215 212 208 205 206 211 214 219 222 224 236 237 218 235 253 257 256 206 106 87 81 122 150 171 181 182 179 176 175 178 182 186 189 187 184 185 186 187 189 190 190 189 187 189 192 192 192 198 202 200 197 198 197 194 194 197 204 209 206 202 203 207 210 210 204 202 207 208 207 206 201 193 189 188 187
223 285 12 299 282 257 229 250 257 234 220 219 217 215 211 208 211 213 214 219 222 230 238 245 266 266 260 236 123 124 114 124 152 167 180 187 185 183 182 182 184 187 189 191 188 183 183 186 189 191 191 189 186 185 187 191 191 191 194 200 203 201 200 198 195 192 195 204 209 204 202 207 210 209 205 203 205 209 209 209 206 198 192 190 191 191
216 247 285 278 269 210 192 285 270 228 215 223 221 216 213 209 210 211 212 216 217 218 227 236 248 250 243 141 109 132 136 159 187 182 184 191 188 186 187 188 189 190 190 190 189 186 185 186 188 189 190 188 185 185 186 188 190 191 192 197 200 200 199 196 192 190 195 205 209 206 207 210 209 205 205 209 211 212 210 209 203 197 194 193 194 194
220 251 269 279 274 247 340 331 273 192 198 223 222 212 210 210 211 211 212 216 216 216 220 222 229 242 248 255 284 293 140 186 210 193 193 195 189 188 190 191 192 191 190 191 191 190 189 189 190 192 191 188 186 186 185 185 187 188 189 193 196 197 197 195 191 190 197 206 211 210 211 211 208 205 210 214 213 210 208 205 200 197 196 196 196 195
232 261 283 305 297 290 328 349 251 195 201 224 221 204 204 206 209 211 212 211 213 218 225 231 239 246 252 261 284 316 355 8 260 212 209 198 188 190 193 194 193 191 190 191 192 191 190 190 193 196 193 191 190 189 186 186 186 185 188 193 194 194 197 195 191 191 199 207 213 212 211 210 207 207 211 212 208 204 204 204 202 200 198 199 200 197
225 267 285 291 284 288 308 309 221 209 204 58 36 199 201 205 208 212 216 212 211 217 224 233 242 247 253 264 289 333 1 351 254 218 208 197 192 193 193 193 193 191 189 190 191 191 190 189 191 193 194 194 193 188 185 185 185 187 195 198 195 193 197 197 194 195 202 209 213 212 211 210 208 210 213 211 205 203 209 211 209 205 202 202 202 200
244 270 278 282 279 284 283 232 202 215 117 114 97 134 186 203 207 210 218 217 214 217 220 227 237 245 254 267 294 348 17 302 244 218 203 199 199 196 193 192 193 192 191 189 189 189 189 188 188 188 188 190 191 191 190 191 192 195 200 202 197 193 195 198 199 201 205 210 214 214 214 214 213 214 215 210 205 210 214 212 209 207 205 205 205 204
209 258 276 288 278 283 280 237 225 273 204 154 136 146 167 199 207 206 217 221 216 217 220 226 236 243 251 266 289 357 19 287 260 226 202 202 203 198 194 192 190 191 192 190 188 188 187 187 186 186 186 187 189 192 193 194 199 203 205 205 201 197 196 198 201 205 209 212 214 215 216 217 216 216 215 211 212 217 218 216 211 207 206 206 207 207
186 252 287 302 289 287 287 257 227 230 203 122 70 112 149 322 238 205 213 227 216 215 219 226 235 241 247 258 252 181 249 275 275 241 195 195 197 193 191 189 186 187 187 186 186 185 185 185 185 185 185 184 185 186 186 190 198 204 209 212 206 200 199 200 204 210 216 216 215 215 217 216 216 218 216 212 212 215 218 218 214 208 206 207 210 210
203 257 274 280 280 279 281 261 221 203 95 58 44 64 84 327 253 189 205 230 216 208 213 222 232 239 241 236 205 184 220 253 266 167 171 180 181 183 184 182 182 183 182 182 183 181 181 183 183 183 184 185 185 184 186 193 200 206 210 209 203 201 204 207 211 217 221 221 219 218 218 218 218 220 219 213 211 215 215 214 210 206 205 207 209 211
210 251 264 270 276 269 265 260 229 136 61 41 11 360 5 320 194 182 195 216 199 191 199 212 224 232 223 199 190 201 226 239 265 79 162 169 168 174 178 177 179 180 178 179 180 178 178 180 180 180 183 185 183 185 192 200 205 209 211 204 197 201 208 214 219 221 221 222 221 221 222 223 220 218 216 214 214 216 215 212 208 205 203 206 208 210
200 231 258 272 280 271 253 253 238 103 61 18 350 345 352 193 191 188 188 165 124 162 179 197 215 221 201 187 191 205 213 322 354 315 181 166 162 167 173 174 176 177 176 176 176 175 176 178 180 182 184 186 190 196 202 205 207 212 213 205 199 204 213 219 223 223 220 220 222 223 227 227 220 214 214 216 216 215 212 210 209 206 203 204 206 208
190 206 247 263 273 280 259 255 245 131 71 357 346 344 264 202 183 174 232 353 359 75 142 176 206 210 192 187 189 171 114 47 354 272 174 164 161 165 170 173 173 172 173 175 175 174 175 177 182 185 186 191 201 204 203 204 210 215 213 206 205 212 219 221 223 224 223 225 227 229 231 228 218 212 213 215 213 213 209 204 204 206 204 204 205 206
178 198 237 253 271 282 262 248 244 148 54 356 343 348 192 262 334 347 335 343 18 23 58 155 189 192 182 175 162 126 104 53 21 135 159 159 159 163 168 171 172 173 173 175 176 176 175 176 180 184 185 190 201 204 201 204 210 213 209 206 211 220 223 224 224 224 227 232 233 234 234 228 215 208 210 212 209 210 209 203 202 203 203 204 204 205
188 226 255 247 28 294 283 39 2 18 22 1 345 344 3 344 336 326 324 3 49 36 46 122 156 172 173 164 146 127 115 56 58 126 148 150 154 161 165 167 171 174 175 176 177 176 176 176 178 181 184 186 193 199 201 204 206 206 205 209 217 224 225 224 223 223 228 235 236 236 235 226 212 206 210 213 211 209 209 207 205 203 202 204 206 206
352 342 309 306 311 297 309 9 7 347 3 4 352 339 343 350 351 338 344 26 46 37 47 98 140 155 158 159 156 154 152 120 91 114 134 142 151 158 162 166 172 176 176 177 178 178 177 176 176 178 181 183 187 191 196 201 204 204 206 212 219 223 223 220 220 223 231 235 235 235 232 221 209 206 212 215 214 211 211 210 208 206 204 205 206 207
42 18 317 301 292 280 267 226 51 357 345 344 358 31 14 13 20 12 20 44 45 38 50 85 129 149 156 166 180 197 181 150 131 116 120 133 148 156 162 170 175 178 178 178 179 179 178 176 177 178 181 184 184 187 195 202 204 204 207 212 216 219 220 221 225 230 234 236 235 233 228 218 209 208 213 216 214 214 216 214 211 210 207 204 205 207
75 23 297 279 274 275 225 153 134 126 302 305 327 75 60 43 40 35 43 56 53 53 68 85 105 127 143 156 176 187 163 146 140 132 125 130 148 161 169 174 177 179 180 180 181 181 179 179 181 181 183 184 183 188 198 202 201 203 209 212 213 215 218 224 230 234 235 236 234 230 224 218 212 210 212 213 212 213 216 216 215 212 208 203 205 207
54 337 300 268 261 277 26 119 139 160 205 257 287 74 63 53 51 49 60 72 73 77 84 86 90 101 109 112 122 141 151 150 142 135 132 137 151 161 170 175 178 180 179 181 184 182 179 182 186 185 184 184 182 187 196 199 201 206 209 209 211 216 220 225 231 234 235 235 232 228 223 218 215 212 211 212 214 215 216 215 216 214 210 208 210 210
308 295 305 303 273 272 251 156 158 169 197 221 93 64 50 44 42 47 69 80 81 84 87 86 86 88 93 99 107 121 132 135 132 133 135 142 150 156 163 170 175 177 178 182 187 184 181 185 189 189 186 184 183 186 193 199 205 208 208 208 211 216 220 225 229 233 235 234 231 228 222 216 214 214 213 214 216 218 219 219 218 215 214 215 216 215
273 276 289 286 259 258 286 179 169 177 201 176 128 40 29 36 33 40 62 68 70 81 89 92 92 88 87 90 94 104 111 113 120 129 131 136 145 150 153 160 167 172 177 183 186 183 183 186 188 187 186 184 184 187 194 203 207 208 206 207 209 211 215 220 224 227 230 231 230 228 224 217 214 214 216 217 218 219 219 220 220 217 218 220 218 215
269 296 304 293 282 300 349 324 225 230 211 148 154 179 123 71 31 30 41 38 44 58 68 84 91 87 85 87 87 94 100 102 109 119 124 132 140 140 144 152 160 166 174 182 181 180 184 187 185 186 186 184 181 186 197 204 206 205 204 204 205 209 213 215 218 223 226 227 228 228 226 221 216 215 216 217 219 219 218 217 217 218 221 222 218 214
Height
1475 1474 1472 1468 1462 1460 1458 1457 1455 1451 1451 1450 1446 1448 1450 1449 1451 1449 1450 1453 1454 1459 1462 1460 1462 1464 1464 1467 1469 1471 1475 1476 1477 1478 1479 1482 1484 1486 1488 1490 1493 1495 1498 1501 1503 1504 1505 1507 1509 1511 1513 1515 1518 1520 1523 1525 1527 1529 1531 1533 1535 1536 1538 1540 1541 1541 1543 1544 1546 1548 1550 1552 1555 1557 1558 1560 1560 1561 1562 1563 1564 1564 1565 1564 1564 1564
1471 1469 1464 1460 1457 1456 1457 1459 1458 1455 1455 1454 1447 1447 1448 1449 1450 1448 1449 1452 1452 1455 1457 1457 1459 1461 1461 1463 1466 1468 1471 1472 1472 1473 1476 1478 1481 1483 1485 1488 1490 1493 1497 1499 1501 1502 1504 1506 1507 1509 1511 1513 1516 1519 1522 1524 1526 1528 1530 1533 1535 1536 1539 1539 1539 1541 1542 1544 1546 1548 1550 1553 1555 1557 1558 1559 1559 1560 1561 1562 1563 1563 1564 1564 1564 1563
1467 1463 1456 1455 1456 1457 1457 1458 1458 1456 1457 1455 1450 1449 1450 1448 1448 1449 1449 1450 1451 1453 1453 1453 1457 1457 1457 1459 1462 1464 1465 1467 1469 1470 1472 1475 1478 1480 1483 1485 1488 1491 1494 1497 1499 1501 1502 1504 1506 1508 1510 1512 1515 1518 1521 1523 1524 1527 1529 1532 1535 1537 1538 1539 1539 1541 1543 1545 1547 1549 1551 1553 1555 1556 1557 1558 1558 1559 1560 1561 1561 1562 1562 1563 1563 1563
1462 1455 1451 1454 1455 1456 1455 1455 1456 1456 1457 1456 1450 1448 1448 1444 1446 1450 1451 1449 1450 1452 1451 1450 1454 1455 1454 1457 1458 1460 1462 1464 1467 1469 1471 1474 1476 1478 1480 1483 1485 1488 1491 1494 1497 1499 1500 1502 1504 1506 1508 1511 1514 1517 1520 1522 1524 1525 1527 1531 1535 1536 1537 1538 1538 1540 1542 1545 1547 1549 1551 1553 1555 1555 1556 1556 1557 1558 1560 1561 1561 1561 1562 1562 1562 1562
1454 1448 1449 1453 1452 1454 1456 1455 1455 1457 1458 1455 1450 1446 1443 1442 1444 1446 1446 1448 1450 1453 1451 1452 1459 1457 1451 1454 1456 1457 1461 1462 1465 1468 1470 1472 1474 1477 1479 1481 1484 1486 1488 1492 1494 1497 1498 1500 1502 1505 1507 1510 1513 1516 1520 1523 1524 1525 1528 1531 1534 1534 1535 1536 1537 1539 1542 1543 1546 1548 1551 1553 1554 1555 1555 1555 1556 1557 1559 1560 1561 1561 1561 1561 1561 1562
1450 1447 1449 1450 1447 1452 1457 1454 1454 1455 1456 1454 1450 1447 1442 1439 1442 1442 1442 1448 1456 1459 1453 1453 1465 1460 1448 1451 1454 1455 1459 1460 1462 1464 1466 1469 1472 1475 1477 1479 1481 1483 1486 1489 1492 1495 1496 1498 1501 1503 1506 1509 1512 1514 1520 1524 1524 1526 1528 1530 1532 1533 1533 1534 1536 1538 1540 1542 1545 1549 1551 1552 1554 1554 1554 1555 1556 1557 1558 1560 1560 1560 1560 1560 1560 1560
1449 1447 1449 1448 1448 1453 1455 1451 1449 1451 1453 1452 1447 1447 1446 1440 1440 1440 1442 1449 1455 1455 1448 1449 1459 1456 1447 1449 1450 1451 1457 1458 1459 1461 1462 1466 1469 1471 1474 1476 1478 1481 1483 1486 1489 1492 1495 1497 1499 1502 1504 1507 1510 1513 1518 1521 1522 1524 1527 1528 1529 1530 1531 1533 1535 1537 1540 1542 1544 1548 1550 1551 1553 1554 1553 1554 1555 1556 1557 1558 1559 1559 1560 1559 1559 1559
1448 1447 1448 1449 1448 1451 1451 1447 1445 1447 1451 1449 1441 1444 1448 1445 1443 1440 1441 1447 1445 1443 1443 1444 1449 1451 1446 1444 1443 1448 1455 1456 1456 1457 1458 1461 1465 1468 1471 1473 1475 1478 1480 1483 1487 1490 1493 1496 1498 1500 1503 1504 1508 1512 1515 1516 1518 1521 1524 1525 1527 1528 1530 1532 1534 1537 1539 1541 1544 1547 1549 1550 1552 1553 1553 1554 1555 1556 1556 1557 1558 1558 1559 1558 1558 1558
1446 1446 1446 1448 1447 1445 1443 1442 1441 1445 1448 1443 1438 1442 1445 1445 1443 1439 1441 1443 1438 1440 1447 1444 1445 1452 1446 1435 1437 1445 1450 1453 1452 1453 1455 1457 1462 1465 1467 1470 1472 1475 1478 1481 1485 1488 1491 1494 1496 1499 1500 1502 1506 1510 1513 1514 1516 1519 1521 1524 1525 1526 1529 1531 1533 1536 1538 1541 1543 1546 1547 1548 1550 1551 1552 1553 1554 1555 1555 1556 1557 1557 1557 1557 1557 1557
1443 1445 1445 1446 1444 1439 1438 1439 1439 1443 1445 1439 1439 1442 1442 1443 1441 1439 1441 1440 1438 1446 1450 1442 1441 1452 1446 1432 1435 1443 1443 1445 1446 1448 1452 1454 1458 1462 1463 1467 1469 1472 1476 1479 1483 1486 1490 1493 1495 1497 1498 1500 1505 1508 1511 1513 1515 1517 1519 1523 1525 1526 1528 1530 1532 1535 1537 1540 1543 1545 1546 1548 1549 1550 1550 1551 1552 1553 1554 1555 1556 1556 1556 1556 1556 1556
1441 1445 1445 1444 1441 1436 1435 1436 1437 1441 1441 1438 1439 1441 1442 1443 1441 1442 1440 1436 1444 1453 1448 1436 1433 1444 1446 1431 1430 1436 1434 1436 1441 1445 1448 1450 1454 1458 1461 1464 1467 1470 1473 1477 1481 1484 1488 1491 1493 1495 1496 1498 1503 1507 1509 1512 1514 1516 1518 1521 1523 1525 1527 1529 1531 1534 1536 1539 1542 1544 1546 1547 1548 1549 1549 1550 1551 1552 1553 1554 1554 1555 1555 1555 1554 1555
1442 1444 1443 1442 1440 1437 1435 1434 1437 1441 1439 1438 1439 1438 1443 1446 1445 1448 1446 1443 1454 1454 1440 1429 1427 1439 1445 1428 1420 1426 1428 1430 1436 1439 1442 1446 1450 1455 1458 1461 1464 1467 1470 1474 1478 1482 1486 1489 1491 1493 1494 1497 1501 1505 1507 1510 1513 1515 1517 1520 1522 1524 1526 1528 1530 1532 1535 1538 1541 1542 1544 1545 1547 1548 1549 1549 1550 1551 1552 1553 1553 1554 1554 1553 1553 1554
1443 1440 1437 1440 1440 1437 1436 1435 1438 1440 1438 1438 1437 1435 1443 1449 1453 1457 1454 1452 1453 1443 1429 1423 1426 1436 1436 1420 1414 1419 1424 1427 1430 1432 1437 1442 1446 1451 1455 1458 1461 1464 1467 1471 1475 1479 1484 1487 1489 1491 1492 1495 1499 1503 1505 1508 1511 1513 1516 1519 1520 1522 1524 1526 1528 1531 1533 1536 1538 1539 1541 1543 1546 1547 1548 1548 1549 1550 1551 1552 1552 1553 1553 1552 1552 1553
1442 1437 1432 1437 1438 1436 1435 1432 1435 1437 1434 1436 1433 1432 1437 1443 1456 1462 1453 1449 1447 1436 1426 1419 1424 1435 1429 1416 1412 1415 1420 1423 1426 1430 1434 1438 1443 1447 1450 1454 1458 1461 1465 1469 1472 1476 1480 1484 1487 1488 1491 1493 1497 1501 1503 1506 1509 1511 1514 1516 1518 1521 1523 1525 1527 1528 1531 1533 1536 1537 1539 1541 1543 1546 1547 1548 1548 1549 1550 1551 1551 1552 1551 1551 1552 1553
1438 1436 1430 1432 1433 1433 1432 1427 1427 1429 1431 1431 1424 1424 1427 1427 1442 1450 1442 1441 1439 1433 1431 1427 1430 1435 1428 1416 1409 1412 1419 1421 1423 1428 1432 1436 1439 1443 1448 1452 1456 1459 1462 1466 1470 1473 1478 1481 1484 1486 1489 1491 1495 1499 1501 1504 1506 1509 1512 1514 1516 1519 1521 1523 1525 1526 1529 1531 1534 1535 1537 1540 1541 1543 1546 1546 1547 1548 1549 1550 1550 1550 1550 1551 1552 1552
1429 1427 1422 1425 1426 1428 1430 1424 1421 1424 1429 1428 1421 1424 1424 1415 1421 1433 1433 1431 1427 1429 1436 1435 1429 1422 1417 1415 1409 1411 1417 1418 1421 1426 1428 1433 1436 1440 1445 1448 1452 1456 1459 1463 1467 1470 1475 1479 1482 1484 1487 1490 1493 1497 1499 1502 1504 1506 1510 1512 1515 1517 1519 1520 1522 1524 1527 1529 1531 1534 1536 1538 1540 1542 1543 1544 1545 1547 1548 1548 1548 1549 1549 1550 1551 1551
1423 1421 1417 1422 1423 1423 1427 1423 1419 1421 1424 1425 1423 1423 1417 1408 1411 1426 1436 1432 1427 1435 1438 1432 1427 1418 1416 1419 1414 1413 1417 1416 1419 1423 1425 1430 1434 1438 1442 1445 1449 1453 1456 1460 1463 1467 1472 1476 1479 1481 1485 1488 1491 1494 1497 1500 1502 1505 1508 1510 1513 1515 1516 1517 1519 1522 1525 1527 1529 1531 1533 1536 1538 1540 1541 1542 1544 1546 1547 1547 1547 1548 1549 1549 1550 1550
1419 1421 1417 1419 1422 1422 1424 1423 1419 1417 1416 1420 1422 1417 1413 1414 1414 1420 1434 1439 1439 1442 1435 1427 1428 1423 1421 1424 1417 1414 1416 1416 1418 1421 1423 1428 1432 1437 1440 1443 1446 1449 1453 1457 1460 1465 1469 1472 1476 1479 1482 1486 1489 1492 1495 1498 1501 1503 1506 1508 1510 1513 1514 1516 1518 1520 1523 1525 1527 1529 1530 1533 1535 1537 1538 1539 1542 1544 1545 1546 1546 1547 1548 1548 1549 1549
1416 1422 1421 1419 1421 1421 1421 1423 1425 1421 1414 1415 1417 1413 1416 1427 1427 1423 1430 1440 1443 1443 1435 1427 1426 1420 1415 1417 1417 1415 1414 1414 1417 1419 1422 1426 1430 1434 1437 1440 1444 1447 1451 1455 1458 1462 1465 1469 1474 1476 1479 1484 1487 1490 1493 1496 1499 1502 1505 1507 1508 1511 1512 1515 1517 1519 1521 1523 1525 1527 1529 1531 1533 1534 1536 1538 1540 1542 1543 1544 1545 1546 1546 1547 1548 1548
1415 1421 1422 1418 1417 1420 1421 1423 1428 1424 1418 1419 1417 1411 1413 1421 1424 1423 1423 1425 1431 1437 1434 1429 1427 1419 1408 1405 1409 1412 1411 1411 1415 1417 1420 1423 1427 1431 1434 1437 1441 1444 1448 1451 1455 1459 1462 1466 1471 1473 1477 1481 1485 1488 1491 1494 1497 1499 1503 1505 1507 1509 1511 1513 1515 1517 1520 1521 1523 1525 1527 1529 1531 1533 1534 1536 1538 1540 1542 1543 1543 1544 1545 1546 1547 1547
1416 1419 1422 1418 1415 1421 1423 1421 1421 1420 1420 1424 1420 1415 1416 1417 1415 1417 1417 1413 1416 1425 1428 1430 1430 1417 1401 1398 1403 1406 1408 1409 1411 1414 1417 1420 1423 1427 1430 1434 1437 1441 1445 1448 1452 1455 1459 1464 1468 1472 1475 1479 1483 1486 1488 1491 1494 1497 1500 1503 1505 1507 1509 1511 1513 1516 1518 1519 1521 1523 1525 1527 1529 1531 1533 1535 1537 1539 1540 1541 1542 1543 1544 1544 1545 1546
1418 1418 1419 1418 1417 1420 1419 1415 1413 1413 1415 1419 1417 1415 1417 1416 1415 1420 1423 1415 1410 1413 1416 1424 1428 1411 1395 1397 1401 1402 1405 1406 1408 1412 1414 1417 1420 1423 1427 1431 1434 1438 1442 1446 1449 1453 1456 1461 1466 1470 1473 1476 1480 1483 1485 1489 1492 1495 1498 1501 1504 1506 1507 1509 1511 1513 1515 1517 1520 1522 1523 1526 1528 1530 1532 1534 1536 1537 1538 1540 1541 1541 1542 1543 1544 1545
1421 1418 1417 1417 1416 1414 1413 1411 1410 1410 1410 1414 1415 1412 1410 1411 1412 1419 1425 1420 1415 1414 1408 1413 1421 1408 1394 1397 1399 1399 1402 1403 1405 1408 1410 1413 1417 1421 1425 1429 1433 1437 1441 1444 1447 1450 1455 1459 1463 1467 1470 1473 1477 1480 1483 1486 1489 1492 1496 1499 1502 1504 1505 1507 1509 1511 1513 1515 1518 1520 1522 1524 1526 1528 1531 1533 1534 1536 1537 1538 1539 1540 1540 1541 1543 1544
1422 1418 1415 1416 1414 1409 1410 1412 1412 1411 1411 1413 1413 1409 1407 1408 1409 1411 1413 1411 1417 1420 1414 1418 1424 1411 1398 1399 1399 1400 1403 1404 1406 1408 1409 1413 1416 1420 1424 1428 1432 1436 1439 1443 1446 1449 1453 1458 1461 1465 1468 1471 1474 1477 1480 1483 1486 1490 1493 1496 1499 1501 1502 1504 1507 1509 1511 1513 1516 1518 1520 1523 1525 1527 1529 1531 1532 1534 1535 1536 1537 1538 1539 1540 1541 1542
1422 1417 1413 1417 1421 1420 1421 1422 1421 1417 1414 1413 1412 1409 1407 1407 1409 1411 1408 1408 1418 1418 1412 1419 1421 1407 1400 1401 1400 1402 1404 1405 1408 1410 1411 1414 1417 1420 1424 1427 1431 1435 1438 1441 1445 1448 1451 1455 1458 1462 1465 1468 1470 1474 1477 1480 1483 1486 1490 1493 1496 1498 1500 1502 1504 1506 1508 1511 1513 1516 1518 1521 1523 1525 1527 1529 1531 1532 1533 1534 1535 1536 1537 1538 1540 1541
1421 1418 1414 1416 1422 1424 1425 1422 1418 1415 1413 1413 1411 1410 1412 1410 1410 1415 1415 1420 1426 1418 1410 1415 1411 1401 1401 1403 1402 1404 1406 1406 1408 1409 1411 1414 1416 1420 1423 1426 1430 1433 1436 1440 1443 1446 1449 1453 1456 1459 1462 1465 1467 1471 1475 1477 1480 1484 1487 1490 1492 1495 1497 1499 1501 1504 1506 1509 1511 1514 1516 1518 1521 1523 1525 1527 1528 1530 1531 1532 1533 1535 1536 1537 1538 1539
1421 1419 1416 1415 1416 1416 1415 1411 1407 1407 1411 1414 1413 1411 1413 1412 1410 1413 1418 1422 1422 1416 1414 1412 1404 1401 1403 1401 1402 1405 1406 1407 1408 1408 1411 1413 1415 1419 1421 1424 1428 1430 1434 1438 1442 1445 1448 1450 1454 1457 1460 1463 1465 1469 1472 1475 1478 1481 1484 1487 1489 1492 1494 1496 1499 1502 1504 1507 1509 1512 1514 1516 1519 1521 1523 1525 1526 1528 1529 1530 1532 1533 1534 1536 1537 1538
1422 1421 1418 1417 1416 1413 1410 1408 1407 1407 1408 1410 1412 1412 1412 1413 1413 1414 1418 1417 1414 1417 1419 1411 1403 1405 1404 1397 1400 1404 1405 1406 1407 1408 1411 1413 1415 1418 1420 1423 1426 1429 1433 1437 1440 1443 1445 1448 1451 1454 1458 1461 1464 1467 1470 1473 1476 1479 1482 1485 1487 1489 1491 1494 1497 1499 1502 1505 1507 1510 1512 1515 1517 1519 1521 1523 1524 1526 1527 1529 1531 1532 1533 1534 1536 1537
1422 1421 1418 1417 1416 1412 1409 1409 1409 1409 1408 1406 1408 1410 1411 1412 1414 1416 1417 1414 1412 1417 1417 1408 1404 1405 1400 1396 1399 1403 1404 1406 1407 1409 1412 1414 1416 1418 1420 1422 1425 1428 1431 1435 1438 1441 1443 1446 1449 1452 1456 1459 1462 1465 1467 1470 1474 1477 1480 1482 1484 1487 1489 1492 1495 1497 1500 1503 1505 1508 1511 1513 1515 1517 1519 1521 1523 1524 1526 1528 1529 1530 1532 1533 1534 1536
1422 1420 1418 1418 1417 1412 1410 1409 1407 1408 1409 1408 1406 1406 1408 1410 1412 1414 1416 1414 1412 1415 1410 1405 1406 1401 1395 1396 1400 1402 1405 1405 1407 1410 1412 1413 1416 1417 1419 1421 1423 1426 1430 1432 1436 1439 1441 1444 1447 1450 1454 1457 1460 1462 1465 1468 1471 1474 1477 1480 1482 1485 1487 1490 1493 1495 1498 1501 1503 1506 1509 1511 1513 1515 1517 1519 1521 1523 1525 1526 1528 1529 1531 1532 1534 1535
1423 1422 1420 1418 1417 1414 1410 1409 1408 1407 1408 1409 1407 1405 1404 1408 1410 1413 1415 1414 1415 1417 1411 1409 1412 1403 1392 1395 1400 1402 1404 1405 1407 1409 1410 1412 1414 1415 1418 1420 1421 1425 1428 1430 1434 1437 1440 1443 1445 1448 1451 1455 1458 1461 1463 1466 1469 1472 1475 1478 1480 1483 1485 1488 1491 1493 1497 1500 1502 1505 1507 1510 1512 1514 1516 1518 1520 1521 1523 1525 1526 1528 1530 1531 1533 1534
1424 1423 1419 1417 1419 1416 1410 1410 1410 1406 1407 1410 1408 1405 1404 1406 1408 1410 1412 1412 1414 1417 1416 1417 1417 1403 1391 1394 1400 1401 1402 1405 1406 1408 1409 1411 1412 1413 1416 1417 1419 1422 1425 1429 1432 1435 1438 1441 1442 1445 1449 1452 1456 1459 1462 1465 1468 1471 1473 1476 1478 1481 1484 1486 1489 1493 1496 1499 1502 1504 1506 1509 1511 1513 1515 1516 1518 1519 1521 1523 1525 1527 1529 1530 1531 1533
1422 1422 1418 1417 1420 1416 1409 1410 1409 1407 1412 1412 1403 1400 1402 1403 1405 1407 1408 1408 1410 1412 1415 1416 1410 1398 1391 1395 1399 1400 1402 1403 1405 1407 1409 1409 1410 1412 1414 1416 1418 1421 1424 1427 1430 1433 1436 1439 1441 1443 1446 1450 1453 1457 1461 1464 1467 1469 1472 1474 1477 1480 1483 1485 1489 1492 1495 1497 1500 1503 1505 1508 1510 1512 1514 1515 1516 1518 1520 1522 1524 1526 1527 1529 1530 1532
1422 1423 1419 1417 1421 1418 1409 1408 1410 1412 1413 1406 1393 1391 1397 1400 1402 1404 1405 1406 1407 1407 1408 1408 1402 1394 1393 1397 1399 1400 1402 1403 1405 1407 1408 1408 1410 1411 1412 1414 1417 1419 1422 1426 1428 1432 1434 1437 1440 1442 1445 1448 1452 1456 1460 1463 1465 1468 1471 1473 1476 1479 1482 1485 1488 1491 1494 1496 1499 1502 1504 1507 1509 1511 1512 1513 1516 1520 1523 1525 1526 1526 1527 1529 1530 1531
1425 1427 1423 1419 1420 1418 1409 1409 1419 1417 1405 1396 1391 1390 1391 1394 1397 1400 1401 1401 1403 1404 1404 1404 1399 1394 1394 1396 1399 1401 1403 1405 1406 1407 1407 1408 1409 1409 1411 1413 1415 1418 1420 1423 1426 1429 1432 1435 1438 1441 1443 1447 1451 1455 1458 1461 1464 1467 1469 1472 1475 1478 1481 1484 1487 1490 1492 1495 1498 1500 1502 1504 1506 1508 1509 1511 1516 1521 1524 1525 1526 1526 1527 1528 1529 1530
1427 1428 1424 1419 1418 1416 1410 1411 1416 1409 1395 1393 1396 1393 1392 1394 1395 1399 1402 1399 1397 1399 1401 1400 1397 1393 1393 1396 1398 1401 1403 1404 1405 1405 1406 1407 1407 1408 1410 1412 1414 1417 1420 1422 1424 1427 1430 1433 1436 1440 1443 1446 1449 1453 1456 1459 1462 1465 1468 1471 1475 1477 1480 1483 1486 1489 1491 1493 1495 1497 1499 1502 1505 1507 1508 1511 1516 1519 1519 1520 1522 1523 1525 1526 1528 1529
1427 1428 1424 1420 1417 1415 1413 1408 1402 1397 1393 1394 1396 1393 1393 1394 1393 1397 1402 1399 1394 1395 1396 1396 1395 1394 1394 1395 1397 1400 1402 1403 1403 1402 1403 1404 1406 1408 1410 1412 1415 1419 1421 1423 1426 1427 1430 1433 1436 1439 1442 1445 1448 1451 1454 1458 1461 1463 1467 1470 1473 1475 1478 1481 1484 1486 1488 1491 1493 1495 1498 1501 1503 1505 1507 1510 1513 1514 1514 1516 1518 1520 1522 1524 1526 1528
1427 1426 1423 1423 1418 1413 1413 1408 1399 1398 1399 1397 1395 1393 1393 1395 1392 1393 1400 1399 1392 1391 1393 1393 1393 1394 1394 1396 1398 1400 1402 1402 1400 1397 1398 1402 1405 1407 1410 1413 1415 1418 1421 1423 1425 1427 1430 1432 1435 1438 1441 1443 1447 1450 1454 1456 1459 1462 1465 1468 1471 1474 1477 1479 1482 1484 1486 1488 1490 1493 1496 1499 1501 1503 1505 1507 1509 1510 1511 1512 1514 1517 1520 1523 1525 1527
1427 1425 1422 1423 1419 1414 1414 1410 1399 1398 1401 1398 1396 1394 1395 1397 1394 1394 1404 1402 1388 1385 1390 1390 1391 1393 1394 1397 1399 1400 1402 1402 1400 1397 1397 1400 1404 1407 1410 1412 1415 1418 1420 1422 1424 1426 1429 1431 1434 1437 1440 1442 1445 1449 1452 1454 1457 1460 1463 1466 1469 1472 1475 1477 1480 1481 1484 1486 1489 1491 1494 1497 1499 1501 1503 1505 1506 1507 1508 1509 1512 1515 1518 1520 1523 1525
1428 1427 1424 1422 1418 1413 1413 1407 1394 1394 1400 1399 1396 1395 1396 1396 1395 1400 1410 1402 1382 1381 1388 1388 1389 1393 1394 1396 1399 1398 1398 1398 1397 1398 1400 1401 1403 1407 1410 1412 1415 1417 1420 1421 1423 1426 1428 1431 1433 1436 1439 1441 1444 1447 1449 1452 1455 1459 1461 1464 1467 1470 1473 1475 1477 1479 1482 1484 1487 1490 1492 1494 1497 1499 1501 1502 1503 1504 1506 1507 1509 1512 1515 1518 1520 1522
1426 1427 1424 1422 1416 1408 1408 1404 1394 1394 1400 1399 1396 1397 1397 1397 1399 1403 1404 1394 1382 1384 1388 1387 1389 1392 1392 1395 1396 1394 1394 1395 1396 1398 1400 1401 1403 1406 1410 1413 1415 1417 1420 1422 1423 1425 1428 1430 1432 1435 1438 1441 1443 1445 1447 1451 1454 1457 1459 1463 1465 1468 1471 1473 1475 1477 1480 1482 1485 1488 1490 1492 1495 1497 1499 1500 1502 1503 1504 1505 1506 1508 1511 1515 1517 1519
1423 1425 1423 1420 1414 1406 1402 1400 1395 1397 1402 1400 1398 1398 1398 1399 1399 1397 1393 1389 1388 1389 1389 1389 1391 1391 1392 1394 1393 1393 1394 1396 1397 1398 1399 1400 1403 1405 1409 1413 1415 1417 1420 1422 1423 1425 1427 1430 1432 1435 1438 1440 1441 1443 1446 1449 1452 1454 1457 1460 1464 1467 1470 1470 1472 1476 1478 1481 1483 1486 1488 1490 1493 1495 1496 1498 1499 1500 1502 1504 1505 1506 1509 1512 1514 1517
1415 1419 1417 1412 1409 1405 1402 1402 1402 1403 1403 1401 1398 1398 1399 1399 1397 1394 1392 1391 1390 1389 1390 1391 1391 1391 1392 1393 1393 1394 1396 1397 1399 1399 1399 1400 1402 1405 1409 1412 1414 1417 1419 1421 1423 1425 1427 1429 1432 1435 1438 1439 1440 1442 1445 1448 1450 1452 1455 1459 1463 1466 1466 1468 1471 1474 1477 1479 1482 1484 1486 1488 1490 1492 1494 1495 1497 1498 1499 1501 1503 1505 1507 1510 1512 1515
1409 1411 1410 1407 1407 1406 1405 1405 1407 1405 1402 1401 1401 1400 1399 1399 1398 1396 1394 1391 1390 1391 1391 1390 1391 1393 1393 1394 1395 1397 1398 1398 1400 1400 1400 1401 1403 1406 1409 1411 1414 1417 1419 1421 1423 1425 1427 1429 1431 1434 1436 1438 1439 1442 1444 1446 1449 1451 1454 1458 1461 1462 1463 1466 1470 1473 1475 1477 1479 1481 1483 1486 1489 1491 1492 1493 1495 1496 1498 1500 1502 1504 1506 1508 1511 1513
1411 1411 1410 1407 1405 1405 1404 1404 1406 1404 1402 1403 1403 1401 1401 1400 1399 1398 1396 1393 1392 1392 1391 1391 1393 1394 1395 1396 1397 1398 1398 1399 1400 1401 1401 1402 1403 1406 1409 1411 1414 1417 1419 1421 1423 1425 1427 1429 1431 1433 1436 1438 1439 1441 1443 1446 1448 1450 1454 1456 1458 1459 1462 1465 1468 1470 1473 1475 1477 1479 1481 1484 1487 1489 1490 1492 1494 1495 1497 1499 1500 1502 1504 1506 1509 1511
1411 1411 1411 1408 1404 1403 1403 1404 1405 1405 1404 1404 1403 1402 1402 1401 1399 1398 1397 1395 1395 1394 1394 1394 1395 1396 1397 1398 1398 1398 1399 1399 1400 1401 1401 1402 1404 1407 1410 1413 1415 1417 1419 1421 1423 1425 1427 1429 1431 1433 1435 1437 1439 1441 1443 1445 1448 1450 1453 1455 1456 1458 1461 1463 1466 1468 1471 1473 1474 1477 1479 1481 1484 1486 1488 1490 1493 1494 1495 1497 1499 1500 1502 1504 1507 1509
1410 1411 1410 1408 1405 1405 1404 1403 1403 1404 1405 1405 1405 1403 1402 1402 1401 1400 1399 1398 1398 1397 1396 1396 1397 1398 1399 1399 1398 1398 1398 1399 1400 1402 1402 1404 1407 1409 1411 1413 1415 1417 1419 1421 1422 1424 1427 1429 1430 1432 1434 1436 1438 1440 1442 1445 1447 1450 1452 1453 1455 1458 1459 1462 1464 1466 1468 1471 1473 1475 1477 1479 1481 1484 1486 1488 1490 1492 1493 1495 1497 1499 1500 1503 1505 1506
1410 1412 1409 1406 1405 1404 1402 1403 1404 1405 1406 1406 1406 1404 1403 1403 1403 1402 1402 1401 1400 1400 1399 1399 1400 1400 1400 1400 1400 1400 1400 1401 1402 1402 1403 1406 1408 1410 1412 1414 1415 1417 1419 1420 1422 1424 1426 1428 1430 1432 1434 1436 1438 1440 1442 1444 1447 1448 1450 1452 1454 1456 1458 1460 1463 1464 1466 1469 1471 1473 1475 1477 1479 1482 1484 1486 1488 1489 1490 1492 1495 1497 1499 1501 1502 1503
1410 1411 1407 1405 1405 1403 1401 1402 1404 1406 1407 1406 1405 1404 1404 1404 1404 1404 1405 1404 1403 1403 1402 1402 1402 1402 1402 1402 1402 1402 1402 1403 1403 1403 1405 1407 1409 1410 1412 1413 1415 1417 1418 1420 1422 1423 1426 1428 1430 1432 1434 1436 1438 1439 1441 1443 1445 1447 1449 1451 1453 1455 1457 1459 1461 1463 1465 1467 1468 1471 1473 1475 1477 1479 1482 1484 1485 1487 1489 1490 1492 1495 1497 1499 1500 1502
1409 1408 1404 1404 1406 1405 1403 1402 1403 1406 1408 1406 1404 1404 1405 1405 1405 1406 1406 1406 1405 1405 1405 1404 1405 1405 1404 1404 1404 1404 1404 1403 1403 1405 1406 1407 1408 1410 1411 1412 1414 1416 1418 1419 1421 1423 1425 1428 1429 1431 1433 1435 1437 1439 1440 1442 1444 1445 1448 1450 1452 1454 1456 1458 1459 1461 1463 1464 1467 1469 1470 1473 1475 1477 1479 1481 1483 1485 1487 1489 1491 1494 1495 1496 1499 1502
1407 1406 1404 1405 1405 1403 1403 1403 1403 1404 1405 1404 1404 1406 1406 1406 1406 1406 1406 1406 1406 1406 1406 1406 1406 1406 1406 1406 1406 1406 1405 1405 1405 1406 1407 1407 1408 1409 1410 1412 1414 1415 1417 1419 1420 1422 1425 1427 1429 1431 1433 1434 1436 1438 1439 1441 1443 1445 1447 1449 1451 1453 1455 1456 1458 1459 1461 1463 1465 1467 1468 1471 1473 1475 1477 1479 1481 1483 1486 1487 1489 1491 1493 1494 1497 1500